This is the latest recevied weather packets stored in our database for station/object NN5DX-13. If no packets are shown the sender has not sent any weather packets the latest 10 day(s).
| Time | Temp. | Humidity | Pressure | Rain* | Wind** | Luminosity | Snow |
|---|---|---|---|---|---|---|---|
| 1777480516 | 23.89° C | 54% | 1014.7 hPa | 0 mm | - | - | - |
| 1777480216 | 23.89° C | 53% | 1014.5 hPa | 0 mm | - | - | - |
| 1777479916 | 23.33° C | 50% | 1014.5 hPa | 0 mm | - | - | - |
| 1777479616 | 23.33° C | 47% | 1014.6 hPa | 0 mm | - | - | - |
| 1777479316 | 22.78° C | 46% | 1014.5 hPa | 0 mm | - | - | - |
| 1777479016 | 22.78° C | 45% | 1014.5 hPa | 0 mm | - | - | - |
| 1777478716 | 22.78° C | 43% | 1014.4 hPa | 0 mm | - | - | - |
| 1777478416 | 22.22° C | 40% | 1014.5 hPa | 0 mm | - | - | - |
| 1777478116 | 22.22° C | 35% | 1014.6 hPa | 0 mm | - | - | - |
| 1777477817 | 22.78° C | 31% | 1014.6 hPa | 0 mm | - | - | - |
| 1777477516 | 22.78° C | 26% | 1014.8 hPa | 0 mm | - | - | - |
| 1777477216 | 22.22° C | 27% | 1014.7 hPa | 0 mm | - | - | - |
| 1777476916 | 22.22° C | 29% | 1014.5 hPa | 0 mm | - | - | - |
| 1777476616 | 22.22° C | 29% | 1014.6 hPa | 0 mm | - | - | - |
| 1777476317 | 22.22° C | 30% | 1014.3 hPa | 0 mm | - | - | - |
| 1777476016 | 22.22° C | 29% | 1014.6 hPa | 0 mm | - | - | - |
| 1777475716 | 22.22° C | 29% | 1014.7 hPa | 0 mm | - | - | - |
| 1777475417 | 22.22° C | 26% | 1014.9 hPa | 0 mm | - | - | - |
| 1777475116 | 22.22° C | 23% | 1015.1 hPa | 0 mm | - | - | - |
| 1777474816 | 22.22° C | 23% | 1015.2 hPa | 0 mm | - | - | - |
| 1777474519 | 22.22° C | 25% | 1015 hPa | 0 mm | - | - | - |
| 1777474216 | 22.22° C | 24% | 1015 hPa | 0 mm | - | - | - |
| 1777473916 | 21.67° C | 26% | 1015.2 hPa | 0 mm | - | - | - |
| 1777473616 | 21.67° C | 29% | 1015.3 hPa | 0 mm | - | - | - |
| 1777473316 | 21.67° C | 30% | 1015.2 hPa | 0 mm | - | - | - |
* Rain latest hour (hover to see other rain measurements)
** Current wind speed in m/s (hover to see current wind gust speed)